Monticello, IA

6:25 PM CDT on July 26, 2017 (GMT -0500)
Monticello Regional

Weather History for KMXO - April, 2013

Change the Weather History Date:

Monday, April 22, 2013

  Actual Average Record
Temperature  
Mean Temperature 58 °F -  
Max Temperature 68 °F 61 °F 82 °F (2007)
Min Temperature 48 °F 39 °F 32 °F (2003)
Degree Days  
Heating Degree Days 7    
Growing Degree Days 8 (Base 50)    
Moisture  
Dew Point 41 °F    
Average Humidity 58    
Maximum Humidity 77    
Minimum Humidity 32    
Precipitation  
Precipitation 0.01 in - - ()
Sea Level Pressure  
Sea Level Pressure 30.11 in    
Wind  
Wind Speed 11 mph (SSE)    
Max Wind Speed 17 mph    
Max Gust Speed 25 mph    
Visibility 10 miles    
Events Rain    
Averages and records for this station are not official NWS values.
T = Trace of Precipitation, MM = Missing Value Source: NWS Daily Summary

Daily Weather History Graph

Daily Weather History Graph

Search for Another Location

Airport or City:

Trip Planner

Search our weather history database for the weather conditions in past years. The results will help you decide how hot, cold, wet, or windy it might be!

Date:

Astronomy

Apr. 22, 2013 Rise Set
Actual Time 6:12 AM CDT 7:54 PM CDT
Civil Twilight 5:42 AM CDT 8:24 PM CDT
Nautical Twilight 5:06 AM CDT 9:00 PM CDT
Astronomical Twilight 4:28 AM CDT 9:39 PM CDT
Moon 4:40 PM CDT (4/22) 4:11 AM CDT (4/22)
Length of Visible Light 14h 41m
Length of Day
13h 41m
Waxing Gibbous, 88% of the Moon is Illuminated
Apr 22
Waxing Gibbous
Apr 25
Full
May 2
Last Quarter
May 9
New
May 17
First Quarter

Hourly Weather History & Observations

Time (CDT) Temp. Dew Point Humidity Pressure Visibility Wind Dir Wind Speed Gust Speed Precip Events Conditions
12:15 AM 51.8 °F 41.0 °F 67% 30.21 in 10.0 mi SSE 13.8 mph - N/A   Overcast
12:35 AM 51.8 °F 41.0 °F 67% 30.21 in 10.0 mi SSE 13.8 mph - N/A   Overcast
12:55 AM 51.8 °F 42.8 °F 71% 30.22 in 10.0 mi SSE 11.5 mph - N/A   Light Drizzle
1:15 AM 51.8 °F 42.8 °F 71% 30.21 in 10.0 mi SSE 11.5 mph - N/A Rain Light Rain
1:35 AM 50.0 °F 42.8 °F 76% 30.23 in 10.0 mi South 10.4 mph - N/A Rain Light Rain
1:55 AM 50.0 °F 41.0 °F 71% 30.22 in 10.0 mi South 9.2 mph - N/A Rain Light Rain
2:15 AM 50.0 °F 41.0 °F 71% 30.21 in 10.0 mi SE 11.5 mph - N/A Rain Light Rain
2:35 AM 50.0 °F 41.0 °F 71% 30.20 in 10.0 mi SE 10.4 mph - N/A Rain Light Rain
2:55 AM 48.2 °F 41.0 °F 76% 30.20 in 10.0 mi SSE 10.4 mph - 0.01 in Rain Rain
3:15 AM 48.2 °F 41.0 °F 76% 30.18 in 10.0 mi SE 12.7 mph - N/A Rain Light Rain
3:35 AM 50.0 °F 41.0 °F 71% 30.19 in 10.0 mi SE 9.2 mph - N/A   Overcast
3:55 AM 48.2 °F 41.0 °F 76% 30.20 in 10.0 mi SSE 4.6 mph - N/A   Overcast
4:15 AM 48.2 °F 41.0 °F 76% 30.20 in 10.0 mi Calm Calm - N/A   Overcast
4:35 AM 48.2 °F 41.0 °F 76% 30.20 in 10.0 mi Calm Calm - N/A   Overcast
4:55 AM 48.2 °F 41.0 °F 76% 30.20 in 10.0 mi Calm Calm - N/A   Overcast
5:15 AM 48.2 °F 41.0 °F 76% 30.19 in 10.0 mi SE 4.6 mph - N/A   Overcast
5:35 AM 48.2 °F 39.2 °F 71% 30.19 in 10.0 mi SE 6.9 mph - N/A   Overcast
5:55 AM 48.2 °F 39.2 °F 71% 30.19 in 10.0 mi SE 8.1 mph - N/A   Overcast
6:15 AM 48.2 °F 39.2 °F 71% 30.19 in 10.0 mi SE 6.9 mph - N/A   Overcast
6:35 AM 48.2 °F 39.2 °F 71% 30.19 in 10.0 mi SE 6.9 mph - N/A   Overcast
6:55 AM 48.2 °F 39.2 °F 71% 30.18 in 10.0 mi SE 8.1 mph - N/A   Overcast
7:15 AM 48.2 °F 39.2 °F 71% 30.18 in 10.0 mi SE 9.2 mph - N/A   Overcast
7:35 AM 48.2 °F 39.2 °F 71% 30.18 in 10.0 mi SE 8.1 mph - N/A   Overcast
7:55 AM 48.2 °F 39.2 °F 71% 30.18 in 10.0 mi SE 9.2 mph - N/A   Mostly Cloudy
8:15 AM 48.2 °F 39.2 °F 71% 30.18 in 10.0 mi SSE 9.2 mph - N/A   Mostly Cloudy
8:35 AM 50.0 °F 41.0 °F 71% 30.17 in 10.0 mi SSE 9.2 mph - N/A   Mostly Cloudy
8:55 AM 50.0 °F 41.0 °F 71% 30.18 in 10.0 mi SSE 10.4 mph - N/A   Overcast
9:15 AM 51.8 °F 41.0 °F 67% 30.17 in 10.0 mi SSE 12.7 mph - N/A   Scattered Clouds
9:35 AM 53.6 °F 41.0 °F 62% 30.16 in 10.0 mi SSE 13.8 mph - N/A   Mostly Cloudy
9:55 AM 55.4 °F 42.8 °F 63% 30.16 in 10.0 mi South 12.7 mph 16.1 mph N/A   Overcast
10:15 AM 55.4 °F 42.8 °F 63% 30.16 in 10.0 mi South 11.5 mph - N/A   Overcast
10:35 AM 57.2 °F 42.8 °F 59% 30.16 in 10.0 mi SSE 12.7 mph - N/A   Mostly Cloudy
10:55 AM 59.0 °F 42.8 °F 55% 30.15 in 10.0 mi South 12.7 mph 19.6 mph N/A   Scattered Clouds
11:15 AM 60.8 °F 42.8 °F 52% 30.15 in 10.0 mi SSE 13.8 mph - N/A   Scattered Clouds
11:35 AM 59.0 °F 42.8 °F 55% 30.15 in 10.0 mi South 11.5 mph - N/A   Mostly Cloudy
11:55 AM 60.8 °F 42.8 °F 52% 30.14 in 10.0 mi South 12.7 mph 16.1 mph N/A   Scattered Clouds
12:15 PM 62.6 °F 42.8 °F 48% 30.14 in 10.0 mi SSE 13.8 mph 18.4 mph N/A   Scattered Clouds
12:35 PM 62.6 °F 42.8 °F 48% 30.12 in 10.0 mi South 13.8 mph 21.9 mph N/A   Scattered Clouds
12:55 PM 64.4 °F 42.8 °F 45% 30.12 in 10.0 mi South 12.7 mph 18.4 mph N/A   Mostly Cloudy
1:15 PM 62.6 °F 42.8 °F 48% 30.10 in 10.0 mi South 13.8 mph 19.6 mph N/A   Overcast
1:35 PM 62.6 °F 42.8 °F 48% 30.10 in 10.0 mi South 10.4 mph - N/A   Overcast
1:55 PM 64.4 °F 42.8 °F 45% 30.08 in 10.0 mi South 11.5 mph - N/A   Overcast
2:15 PM 64.4 °F 42.8 °F 45% 30.07 in 10.0 mi SSW 11.5 mph 16.1 mph N/A   Scattered Clouds
2:35 PM 66.2 °F 42.8 °F 43% 30.07 in 10.0 mi South 8.1 mph 11.5 mph N/A   Clear
2:55 PM 66.2 °F 41.0 °F 40% 30.05 in 10.0 mi South 10.4 mph 18.4 mph N/A   Scattered Clouds
3:15 PM 66.2 °F 41.0 °F 40% 30.04 in 10.0 mi SSE 13.8 mph 18.4 mph N/A   Mostly Cloudy
3:35 PM 68.0 °F 39.2 °F 35% 30.03 in 10.0 mi SSE 16.1 mph 19.6 mph N/A   Scattered Clouds
3:55 PM 68.0 °F 39.2 °F 35% 30.01 in 10.0 mi South 15.0 mph - N/A   Scattered Clouds
4:15 PM 66.2 °F 39.2 °F 37% 30.01 in 10.0 mi South 12.7 mph - N/A   Scattered Clouds
4:35 PM 66.2 °F 37.4 °F 35% 30.01 in 10.0 mi South 12.7 mph 18.4 mph N/A   Mostly Cloudy
4:55 PM 66.2 °F 37.4 °F 35% 30.00 in 10.0 mi SSE 17.3 mph - N/A   Scattered Clouds
5:15 PM 66.2 °F 37.4 °F 35% 29.99 in 10.0 mi South 10.4 mph 18.4 mph N/A   Clear
5:35 PM 66.2 °F 37.4 °F 35% 29.99 in 10.0 mi SSE 15.0 mph 23.0 mph N/A   Scattered Clouds
5:55 PM 66.2 °F 35.6 °F 32% 29.99 in 10.0 mi South 12.7 mph - N/A   Scattered Clouds
6:15 PM 64.4 °F 37.4 °F 37% 29.98 in 10.0 mi SSE 11.5 mph - N/A   Clear
6:35 PM 64.4 °F 37.4 °F 37% 29.98 in 10.0 mi SSE 12.7 mph - N/A   Clear
6:55 PM 64.4 °F 37.4 °F 37% 29.97 in 10.0 mi SSE 12.7 mph - N/A   Clear
7:15 PM 62.6 °F 39.2 °F 42% 29.98 in 10.0 mi SSE 8.1 mph - N/A   Scattered Clouds
7:35 PM 60.8 °F 41.0 °F 48% 29.98 in 10.0 mi SSE 8.1 mph - N/A   Overcast
7:55 PM 60.8 °F 42.8 °F 52% 29.98 in 10.0 mi SSE 8.1 mph - N/A   Overcast
8:15 PM 60.8 °F 42.8 °F 52% 29.98 in 10.0 mi SSE 8.1 mph - N/A   Overcast
8:35 PM 60.8 °F 42.8 °F 52% 29.99 in 10.0 mi SSE 9.2 mph - N/A   Mostly Cloudy
8:55 PM 60.8 °F 42.8 °F 52% 29.99 in 10.0 mi SSE 8.1 mph - N/A   Mostly Cloudy
9:15 PM 62.6 °F 39.2 °F 42% 30.00 in 10.0 mi South 15.0 mph 23.0 mph N/A   Overcast
9:35 PM 60.8 °F 42.8 °F 52% 30.01 in 10.0 mi SSW 12.7 mph - N/A Rain Light Rain
9:55 PM 60.8 °F 39.2 °F 45% 30.01 in 10.0 mi SW 15.0 mph 25.3 mph N/A   Overcast
10:15 PM 57.2 °F 48.2 °F 72% 30.03 in 10.0 mi West 11.5 mph - N/A Rain Light Rain
10:35 PM 55.4 °F 48.2 °F 77% 30.04 in 10.0 mi West 11.5 mph - N/A   Drizzle
10:55 PM 55.4 °F 46.4 °F 72% 30.03 in 10.0 mi WSW 6.9 mph - N/A   Light Drizzle
11:15 PM 53.6 °F 46.4 °F 77% 30.02 in 10.0 mi WSW 5.8 mph - N/A   Light Drizzle
11:35 PM 53.6 °F 46.4 °F 77% 30.01 in 10.0 mi Calm Calm - N/A   Light Drizzle
11:55 PM 53.6 °F 46.4 °F 77% 30.02 in 10.0 mi SW 3.5 mph - N/A   Overcast